Station Historical Data
Daily Summary for September 10, 2017 Units:  English    Metric   Both
« Previous Day
Next Day »
Daily Weekly Monthly Yearly Custom
  High: Low: Average:
Temperature: 70.7 °F 59.8 °F 64.3 °F
Dew Point: 54.6 °F 47.1 °F 50 °F
Humidity: 75% 45% 61%
Wind Speed: 2.0mph 0.0mph 0.4mph
Wind Gust: 7.0mph - -
Wind- - West
Pressure: 30.27 in 30.16 in -
Precipitation: 0.00 in    
Historical Graphs
 
 
Tabular Data for September 10, 2017
Time Temperature Dew Point Pressure Wind Wind Speed Wind Gust Humidity Rainfall Rate (Hourly) solar Conditions
00:00 62.6 °F 54.6 °F 30.20 in Calm     75% 0.00 in WeatherDisplay:10.37 W/m2 RA
00:05 62.6 °F 54.6 °F 30.19 in Calm     75% 0.00 in WeatherDisplay:10.37 W/m2 CLR
00:10 62.7 °F 54.2 °F 30.20 in Calm     74% 0.00 in WeatherDisplay:10.37 W/m2 CLR
00:15 62.9 °F 53.8 °F 30.20 in Calm     72% 0.00 in WeatherDisplay:10.37 W/m2 CLR
00:20 63.4 °F 53.9 °F 30.20 in Calm     71% 0.00 in WeatherDisplay:10.37 W/m2 CLR
00:25 63.9 °F 53.9 °F 30.20 in Calm     70% 0.00 in WeatherDisplay:10.37 W/m2 CLR
00:30 64.1 °F 53.7 °F 30.20 in Calm     69% 0.00 in WeatherDisplay:10.37 W/m2 CLR
00:40 64.2 °F 53.4 °F 30.20 in Calm     68% 0.00 in WeatherDisplay:10.37 W/m2 CLR
00:45 64.4 °F 53.6 °F 30.20 in Calm   1.0 mph 68% 0.00 in WeatherDisplay:10.37 W/m2 CLR
00:50 64.5 °F 53.7 °F 30.20 in Calm   1.0 mph 68% 0.00 in WeatherDisplay:10.37 W/m2 CLR
00:55 64.4 °F 53.6 °F 30.20 in Calm   1.0 mph 68% 0.00 in WeatherDisplay:10.37 W/m2 CLR
01:00 64.5 °F 53.3 °F 30.19 in Calm   1.0 mph 67% 0.00 in WeatherDisplay:10.37 W/m2 CLR
01:10 64.4 °F 53.2 °F 30.20 in Calm   1.0 mph 67% 0.00 in WeatherDisplay:10.37 W/m2 CLR
01:15 64.3 °F 52.7 °F 30.20 in Calm   1.0 mph 66% 0.00 in WeatherDisplay:10.37 W/m2 CLR
01:20 64.3 °F 53.1 °F 30.19 in Calm   2.0 mph 67% 0.00 in WeatherDisplay:10.37 W/m2 CLR
01:25 64.4 °F 52.8 °F 30.19 in Calm     66% 0.00 in WeatherDisplay:10.37 W/m2 CLR
01:30 64.4 °F 52.8 °F 30.19 in Calm   1.0 mph 66% 0.00 in WeatherDisplay:10.37 W/m2 CLR
01:35 64.5 °F 52.5 °F 30.19 in Calm   2.0 mph 65% 0.00 in WeatherDisplay:10.37 W/m2 CLR
01:40 64.6 °F 52.1 °F 30.19 in Calm   2.0 mph 64% 0.00 in WeatherDisplay:10.37 W/m2 CLR
01:45 64.6 °F 52.1 °F 30.19 in Calm   1.0 mph 64% 0.00 in WeatherDisplay:10.37 W/m2 CLR
01:50 64.5 °F 52.0 °F 30.20 in Calm   2.0 mph 64% 0.00 in WeatherDisplay:10.37 W/m2 CLR
01:55 64.5 °F 52.5 °F 30.20 in Calm   1.0 mph 65% 0.00 in WeatherDisplay:10.37 W/m2 CLR
02:00 64.3 °F 52.3 °F 30.20 in Calm   1.0 mph 65% 0.00 in WeatherDisplay:10.37 W/m2 CLR
02:10 64.1 °F 52.1 °F 30.20 in Calm   2.0 mph 65% 0.00 in WeatherDisplay:10.37 W/m2 CLR
02:15 64.2 °F 51.7 °F 30.20 in Calm   2.0 mph 64% 0.00 in WeatherDisplay:10.37 W/m2 CLR
02:20 64.1 °F 51.7 °F 30.19 in Calm   1.0 mph 64% 0.00 in WeatherDisplay:10.37 W/m2 CLR
02:25 63.9 °F 51.5 °F 30.19 in Calm   1.0 mph 64% 0.00 in WeatherDisplay:10.37 W/m2 CLR
02:30 63.9 °F 51.5 °F 30.19 in Calm   1.0 mph 64% 0.00 in WeatherDisplay:10.37 W/m2 CLR
02:35 63.9 °F 51.5 °F 30.19 in Calm   1.0 mph 64% 0.00 in WeatherDisplay:10.37 W/m2 CLR
02:40 63.8 °F 51.4 °F 30.20 in Calm   1.0 mph 64% 0.00 in WeatherDisplay:10.37 W/m2 CLR
02:45 63.8 °F 51.4 °F 30.19 in Calm   1.0 mph 64% 0.00 in WeatherDisplay:10.37 W/m2 CLR
02:50 63.7 °F 51.3 °F 30.19 in Calm   1.0 mph 64% 0.00 in WeatherDisplay:10.37 W/m2 CLR
02:55 63.6 °F 51.2 °F 30.19 in West 1.0 mph 2.0 mph 64% 0.00 in WeatherDisplay:10.37 W/m2 CLR
03:00 63.6 °F 50.8 °F 30.19 in Calm   2.0 mph 63% 0.00 in WeatherDisplay:10.37 W/m2 CLR
03:05 63.5 °F 51.1 °F 30.20 in Calm   1.0 mph 64% 0.00 in WeatherDisplay:10.37 W/m2 CLR
03:10 63.3 °F 50.9 °F 30.20 in Calm   1.0 mph 64% 0.00 in WeatherDisplay:10.37 W/m2 CLR
03:15 63.3 °F 50.9 °F 30.20 in Calm   5.0 mph 64% 0.00 in WeatherDisplay:10.37 W/m2 CLR
03:20 63.2 °F 51.2 °F 30.20 in Calm   1.0 mph 65% 0.00 in WeatherDisplay:10.37 W/m2 CLR
03:25 63.1 °F 51.1 °F 30.19 in Calm   1.0 mph 65% 0.00 in WeatherDisplay:10.37 W/m2 CLR
03:30 63.0 °F 51.0 °F 30.19 in Calm   3.0 mph 65% 0.00 in WeatherDisplay:10.37 W/m2 CLR
03:35 63.0 °F 50.6 °F 30.19 in Calm   2.0 mph 64% 0.00 in WeatherDisplay:10.37 W/m2 CLR
03:40 63.0 °F 50.6 °F 30.19 in West 1.0 mph 2.0 mph 64% 0.00 in WeatherDisplay:10.37 W/m2 CLR
03:45 63.0 °F 50.6 °F 30.19 in Calm   2.0 mph 64% 0.00 in WeatherDisplay:10.37 W/m2 CLR
03:50 63.1 °F 51.1 °F 30.19 in Calm   3.0 mph 65% 0.00 in WeatherDisplay:10.37 W/m2 CLR
03:55 62.8 °F 50.9 °F 30.19 in Calm   3.0 mph 65% 0.00 in WeatherDisplay:10.37 W/m2 CLR
04:00 62.8 °F 51.3 °F 30.19 in Calm   1.0 mph 66% 0.00 in WeatherDisplay:10.37 W/m2 CLR
04:05 62.6 °F 51.1 °F 30.19 in Calm   1.0 mph 66% 0.00 in WeatherDisplay:10.37 W/m2 CLR
04:10 62.4 °F 50.9 °F 30.19 in Calm   1.0 mph 66% 0.00 in WeatherDisplay:10.37 W/m2 CLR
04:15 62.4 °F 50.9 °F 30.19 in Calm   3.0 mph 66% 0.00 in WeatherDisplay:10.37 W/m2 CLR
04:20 62.4 °F 50.9 °F 30.19 in Calm   3.0 mph 66% 0.00 in WeatherDisplay:10.37 W/m2 CLR
04:25 62.4 °F 51.3 °F 30.19 in Calm   2.0 mph 67% 0.00 in WeatherDisplay:10.37 W/m2 CLR
04:30 62.2 °F 50.7 °F 30.19 in Calm   2.0 mph 66% 0.00 in WeatherDisplay:10.37 W/m2 CLR
04:40 62.0 °F 51.3 °F 30.19 in Calm   3.0 mph 68% 0.00 in WeatherDisplay:10.37 W/m2 CLR
04:45 61.9 °F 50.8 °F 30.19 in WNW 1.0 mph 2.0 mph 67% 0.00 in WeatherDisplay:10.37 W/m2 CLR
04:50 61.9 °F 51.2 °F 30.19 in Calm   1.0 mph 68% 0.00 in WeatherDisplay:10.37 W/m2 CLR
04:55 61.8 °F 51.1 °F 30.19 in Calm   2.0 mph 68% 0.00 in WeatherDisplay:10.37 W/m2 CLR
05:00 61.7 °F 51.0 °F 30.19 in Calm   2.0 mph 68% 0.00 in WeatherDisplay:10.37 W/m2 CLR
05:05 61.6 °F 51.3 °F 30.19 in Calm   1.0 mph 69% 0.00 in WeatherDisplay:10.37 W/m2 CLR
05:10 61.5 °F 51.2 °F 30.19 in Calm   1.0 mph 69% 0.00 in WeatherDisplay:10.37 W/m2 CLR
05:15 61.4 °F 51.5 °F 30.19 in Calm   2.0 mph 70% 0.00 in WeatherDisplay:10.37 W/m2 CLR
05:20 61.3 °F 51.0 °F 30.20 in Calm   3.0 mph 69% 0.00 in WeatherDisplay:10.37 W/m2 CLR
05:25 61.3 °F 51.0 °F 30.20 in Calm   2.0 mph 69% 0.00 in WeatherDisplay:10.37 W/m2 CLR
05:30 61.2 °F 51.3 °F 30.20 in Calm   3.0 mph 70% 0.00 in WeatherDisplay:10.37 W/m2 CLR
05:40 61.2 °F 51.3 °F 30.20 in Calm   1.0 mph 70% 0.00 in WeatherDisplay:10.37 W/m2 CLR
05:45 61.2 °F 51.3 °F 30.20 in Calm   3.0 mph 70% 0.00 in WeatherDisplay:10.37 W/m2 CLR
05:50 61.1 °F 51.3 °F 30.20 in Calm   1.0 mph 70% 0.00 in WeatherDisplay:10.37 W/m2 CLR
05:55 61.0 °F 51.6 °F 30.20 in Calm   2.0 mph 71% 0.00 in WeatherDisplay:10.37 W/m2 CLR
06:00 60.9 °F 51.4 °F 30.20 in Calm   5.0 mph 71% 0.00 in WeatherDisplay:10.37 W/m2 CLR
06:05 60.9 °F 51.4 °F 30.21 in Calm   1.0 mph 71% 0.00 in WeatherDisplay:10.37 W/m2 CLR
06:10 60.8 °F 51.3 °F 30.21 in Calm   3.0 mph 71% 0.00 in WeatherDisplay:10.37 W/m2 CLR
06:15 60.7 °F 51.2 °F 30.21 in West 1.0 mph 3.0 mph 71% 0.00 in WeatherDisplay:10.37 W/m2 CLR
06:20 60.7 °F 51.2 °F 30.21 in Calm   3.0 mph 71% 0.00 in WeatherDisplay:10.37 W/m2 CLR
06:25 60.5 °F 51.5 °F 30.21 in West 1.0 mph 2.0 mph 72% 0.00 in WeatherDisplay:10.37 W/m2 CLR
06:30 60.5 °F 51.4 °F 30.21 in Calm   1.0 mph 72% 0.00 in WeatherDisplay:10.37 W/m2 CLR
06:40 60.3 °F 51.2 °F 30.22 in WNW 1.0 mph 2.0 mph 72% 0.00 in WeatherDisplay:10.37 W/m2 CLR
06:45 60.3 °F 51.2 °F 30.22 in Calm   3.0 mph 72% 0.00 in WeatherDisplay:10.37 W/m2 CLR
06:55 60.2 °F 50.8 °F 30.22 in Calm   2.0 mph 71% 0.00 in WeatherDisplay:10.37 W/m2 CLR
07:00 60.1 °F 50.7 °F 30.22 in Calm   2.0 mph 71% 0.00 in WeatherDisplay:10.37 W/m2 CLR
07:05 60.1 °F 51.0 °F 30.23 in West 1.0 mph 2.0 mph 72% 0.00 in WeatherDisplay:10.37 W/m2 CLR
07:10 60.0 °F 51.0 °F 30.23 in West 1.0 mph 2.0 mph 72% 0.00 in WeatherDisplay:10.37 W/m2 CLR
07:15 59.9 °F 50.8 °F 30.23 in West 1.0 mph 3.0 mph 72% 0.00 in WeatherDisplay:10.37 W/m2 CLR
07:20 59.9 °F 50.8 °F 30.23 in West 1.0 mph 2.0 mph 72% 0.00 in WeatherDisplay:10.37 W/m2 FEW
07:25 59.8 °F 50.8 °F 30.23 in Calm   2.0 mph 72% 0.00 in WeatherDisplay:10.37 W/m2 FEW
07:30 59.8 °F 50.8 °F 30.24 in Calm   3.0 mph 72% 0.00 in WeatherDisplay:10.37 W/m2 FEW
07:40 59.8 °F 50.8 °F 30.24 in Calm   3.0 mph 72% 0.00 in WeatherDisplay:10.37 W/m2 FEW
07:45 59.8 °F 50.8 °F 30.24 in Calm   2.0 mph 72% 0.00 in WeatherDisplay:10.37 W/m2 FEW
07:50 60.0 °F 50.6 °F 30.24 in West 1.0 mph 3.0 mph 71% 0.00 in WeatherDisplay:10.37 W/m2 FEW
07:55 60.1 °F 51.0 °F 30.25 in Calm   3.0 mph 72% 0.00 in WeatherDisplay:10.37 W/m2 FEW
08:00 60.2 °F 51.1 °F 30.25 in Calm   2.0 mph 72% 0.00 in WeatherDisplay:10.37 W/m2 FEW
08:05 60.2 °F 50.8 °F 30.25 in WNW 1.0 mph 3.0 mph 71% 0.00 in WeatherDisplay:10.37 W/m2 FEW
08:10 60.3 °F 50.9 °F 30.25 in West 1.0 mph 3.0 mph 71% 0.00 in WeatherDisplay:10.37 W/m2 FEW
08:15 60.5 °F 51.0 °F 30.25 in West 2.0 mph 6.0 mph 71% 0.00 in WeatherDisplay:10.37 W/m2 FEW
08:20 60.6 °F 51.1 °F 30.25 in WNW 1.0 mph 2.0 mph 71% 0.00 in WeatherDisplay:10.37 W/m2 FEW
08:25 60.8 °F 51.0 °F 30.25 in WNW 1.0 mph 3.0 mph 70% 0.00 in WeatherDisplay:10.37 W/m2 FEW
08:30 60.9 °F 51.0 °F 30.25 in WNW 1.0 mph 3.0 mph 70% 0.00 in WeatherDisplay:10.37 W/m2 FEW
08:35 60.9 °F 51.4 °F 30.26 in West 1.0 mph 3.0 mph 71% 0.00 in WeatherDisplay:10.37 W/m2 FEW
08:40 60.9 °F 51.4 °F 30.26 in Calm   2.0 mph 71% 0.00 in WeatherDisplay:10.37 W/m2 FEW
08:45 61.0 °F 50.8 °F 30.26 in West 1.0 mph 5.0 mph 69% 0.00 in WeatherDisplay:10.37 W/m2 FEW
08:50 61.1 °F 51.2 °F 30.26 in West 1.0 mph 3.0 mph 70% 0.00 in WeatherDisplay:10.37 W/m2 FEW
08:55 61.2 °F 51.3 °F 30.26 in WNW 1.0 mph 3.0 mph 70% 0.00 in WeatherDisplay:10.37 W/m2 FEW
09:00 61.3 °F 51.4 °F 30.25 in Calm   2.0 mph 70% 0.00 in WeatherDisplay:10.37 W/m2 FEW
09:05 61.4 °F 50.8 °F 30.25 in West 1.0 mph 3.0 mph 68% 0.00 in WeatherDisplay:10.37 W/m2 FEW
09:10 61.6 °F 50.9 °F 30.25 in West 1.0 mph 5.0 mph 68% 0.00 in WeatherDisplay:10.37 W/m2 FEW
09:15 61.7 °F 51.4 °F 30.25 in West 1.0 mph 3.0 mph 69% 0.00 in WeatherDisplay:10.37 W/m2 FEW
09:20 61.9 °F 51.2 °F 30.25 in Calm   3.0 mph 68% 0.00 in WeatherDisplay:10.37 W/m2 FEW
09:25 62.0 °F 50.9 °F 30.25 in Calm   5.0 mph 67% 0.00 in WeatherDisplay:10.37 W/m2 FEW
09:30 62.2 °F 50.7 °F 30.26 in West 2.0 mph 5.0 mph 66% 0.00 in WeatherDisplay:10.37 W/m2 FEW
09:40 62.6 °F 50.6 °F 30.26 in West 1.0 mph 5.0 mph 65% 0.00 in WeatherDisplay:10.37 W/m2 FEW
09:45 62.8 °F 50.4 °F 30.26 in WSW 1.0 mph 6.0 mph 64% 0.00 in WeatherDisplay:10.37 W/m2 FEW
09:50 63.0 °F 50.6 °F 30.26 in Calm   3.0 mph 64% 0.00 in WeatherDisplay:10.37 W/m2 FEW
09:55 63.2 °F 50.8 °F 30.26 in WNW 1.0 mph 5.0 mph 64% 0.00 in WeatherDisplay:10.37 W/m2 FEW
10:00 63.3 °F 50.1 °F 30.26 in West 1.0 mph 3.0 mph 62% 0.00 in WeatherDisplay:10.37 W/m2 FEW
10:10 63.7 °F 50.0 °F 30.26 in West 1.0 mph 6.0 mph 61% 0.00 in WeatherDisplay:10.37 W/m2 FEW
10:15 64.0 °F 49.4 °F 30.27 in West 2.0 mph 6.0 mph 59% 0.00 in WeatherDisplay:10.37 W/m2 FEW
10:20 64.1 °F 48.6 °F 30.27 in West 2.0 mph 5.0 mph 57% 0.00 in WeatherDisplay:10.37 W/m2 FEW
10:25 64.4 °F 50.3 °F 30.27 in West 1.0 mph 3.0 mph 60% 0.00 in WeatherDisplay:10.37 W/m2 FEW
10:30 64.9 °F 49.8 °F 30.27 in West 1.0 mph 5.0 mph 58% 0.00 in WeatherDisplay:10.37 W/m2 FEW
10:35 65.1 °F 49.5 °F 30.27 in West 1.0 mph 5.0 mph 57% 0.00 in WeatherDisplay:10.37 W/m2 FEW
10:40 65.5 °F 49.4 °F 30.27 in West 1.0 mph 5.0 mph 56% 0.00 in WeatherDisplay:10.37 W/m2 FEW
10:45 65.8 °F 50.1 °F 30.27 in West 1.0 mph 3.0 mph 57% 0.00 in WeatherDisplay:10.37 W/m2 FEW
10:50 66.0 °F 48.4 °F 30.27 in West 1.0 mph 5.0 mph 53% 0.00 in WeatherDisplay:10.37 W/m2 FEW
10:55 66.1 °F 48.9 °F 30.27 in West 1.0 mph 5.0 mph 54% 0.00 in WeatherDisplay:10.37 W/m2 FEW
11:00 66.5 °F 48.8 °F 30.27 in West 1.0 mph 5.0 mph 53% 0.00 in WeatherDisplay:10.37 W/m2 FEW
11:05 66.5 °F 48.3 °F 30.27 in West 1.0 mph 3.0 mph 52% 0.00 in WeatherDisplay:10.37 W/m2 FEW
11:10 66.6 °F 47.9 °F 30.27 in West 2.0 mph 5.0 mph 51% 0.00 in WeatherDisplay:10.37 W/m2 FEW
11:15 66.6 °F 48.4 °F 30.27 in West 2.0 mph 5.0 mph 52% 0.00 in WeatherDisplay:10.37 W/m2 FEW
11:20 66.8 °F 48.1 °F 30.26 in West 1.0 mph 5.0 mph 51% 0.00 in WeatherDisplay:10.37 W/m2 SCT
11:25 67.2 °F 49.5 °F 30.26 in WNW 1.0 mph 3.0 mph 53% 0.00 in WeatherDisplay:10.37 W/m2 SCT
11:30 67.8 °F 48.5 °F 30.27 in West 1.0 mph 5.0 mph 50% 0.00 in WeatherDisplay:10.37 W/m2 SCT
11:35 68.0 °F 48.1 °F 30.27 in West 1.0 mph 3.0 mph 49% 0.00 in WeatherDisplay:10.37 W/m2 SCT
11:40 68.2 °F 48.9 °F 30.26 in WSW 1.0 mph 5.0 mph 50% 0.00 in WeatherDisplay:10.37 W/m2 SCT
11:45 68.4 °F 48.5 °F 30.27 in WSW 1.0 mph 3.0 mph 49% 0.00 in WeatherDisplay:10.37 W/m2 SCT
11:50 68.9 °F 48.9 °F 30.27 in West 1.0 mph 3.0 mph 49% 0.00 in WeatherDisplay:10.37 W/m2 SCT
11:55 68.7 °F 47.1 °F 30.27 in WSW 1.0 mph 5.0 mph 46% 0.00 in WeatherDisplay:10.37 W/m2 SCT
12:00 69.1 °F 48.6 °F 30.26 in Calm   3.0 mph 48% 0.00 in WeatherDisplay:10.37 W/m2 SCT
12:05 69.8 °F 49.2 °F 30.27 in West 2.0 mph 5.0 mph 48% 0.00 in WeatherDisplay:10.37 W/m2 SCT
12:10 70.3 °F 49.6 °F 30.26 in WSW 1.0 mph 3.0 mph 48% 0.00 in WeatherDisplay:10.37 W/m2 SCT
12:15 70.7 °F 50.1 °F 30.26 in West 1.0 mph 3.0 mph 48% 0.00 in WeatherDisplay:10.37 W/m2 SCT
12:20 70.5 °F 48.1 °F 30.25 in West 1.0 mph 5.0 mph 45% 0.00 in WeatherDisplay:10.37 W/m2 SCT
12:25 70.2 °F 48.4 °F 30.25 in West 1.0 mph 3.0 mph 46% 0.00 in WeatherDisplay:10.37 W/m2 SCT
12:30 70.1 °F 47.8 °F 30.25 in West 1.0 mph 2.0 mph 45% 0.00 in WeatherDisplay:10.37 W/m2 SCT
12:40 69.6 °F 48.5 °F 30.25 in West 2.0 mph 7.0 mph 47% 0.00 in WeatherDisplay:10.37 W/m2 SCT
12:45 69.3 °F 47.6 °F 30.25 in West 1.0 mph 5.0 mph 46% 0.00 in WeatherDisplay:10.37 W/m2 SCT
12:50 69.7 °F 48.6 °F 30.25 in West 1.0 mph 2.0 mph 47% 0.00 in WeatherDisplay:10.37 W/m2 SCT
12:55 69.5 °F 47.2 °F 30.26 in WNW 1.0 mph 3.0 mph 45% 0.00 in WeatherDisplay:10.37 W/m2 SCT
13:00 69.0 °F 49.0 °F 30.25 in Calm   2.0 mph 49% 0.00 in WeatherDisplay:10.37 W/m2 SCT
13:10 69.7 °F 49.7 °F 30.25 in WNW 2.0 mph 5.0 mph 49% 0.00 in WeatherDisplay:10.37 W/m2 SCT
13:15 69.9 °F 49.4 °F 30.25 in WNW 2.0 mph 5.0 mph 48% 0.00 in WeatherDisplay:10.37 W/m2 SCT
13:25 69.4 °F 48.9 °F 30.25 in West 1.0 mph 3.0 mph 48% 0.00 in WeatherDisplay:10.37 W/m2 SCT
13:30 69.1 °F 48.6 °F 30.25 in NW 1.0 mph 5.0 mph 48% 0.00 in WeatherDisplay:10.37 W/m2 SCT
13:35 69.7 °F 50.2 °F 30.24 in Calm   2.0 mph 50% 0.00 in WeatherDisplay:10.37 W/m2 SCT
13:40 70.0 °F 50.5 °F 30.24 in Calm   2.0 mph 50% 0.00 in WeatherDisplay:10.37 W/m2 SCT
13:45 69.9 °F 49.3 °F 30.24 in West 1.0 mph 2.0 mph 48% 0.00 in WeatherDisplay:10.37 W/m2 SCT
13:50 69.2 °F 48.6 °F 30.24 in West 1.0 mph 3.0 mph 48% 0.00 in WeatherDisplay:10.37 W/m2 SCT
13:55 68.6 °F 49.2 °F 30.24 in West 1.0 mph 3.0 mph 50% 0.00 in WeatherDisplay:10.37 W/m2 SCT
14:00 68.5 °F 49.7 °F 30.24 in West 1.0 mph 5.0 mph 51% 0.00 in WeatherDisplay:10.37 W/m2 SCT
14:05 68.3 °F 50.0 °F 30.24 in Calm   5.0 mph 52% 0.00 in WeatherDisplay:10.37 W/m2 SCT
14:10 68.5 °F 49.7 °F 30.24 in West 1.0 mph 3.0 mph 51% 0.00 in WeatherDisplay:10.37 W/m2 SCT
14:15 68.5 °F 49.7 °F 30.24 in West 1.0 mph 3.0 mph 51% 0.00 in WeatherDisplay:10.37 W/m2 SCT
14:20 68.6 °F 50.3 °F 30.23 in WNW 1.0 mph 3.0 mph 52% 0.00 in WeatherDisplay:10.37 W/m2 BKN
14:25 68.9 °F 50.5 °F 30.23 in Calm   2.0 mph 52% 0.00 in WeatherDisplay:10.37 W/m2 BKN
14:30 69.2 °F 49.3 °F 30.22 in Calm   3.0 mph 49% 0.00 in WeatherDisplay:10.37 W/m2 BKN
14:40 69.7 °F 50.2 °F 30.22 in NW 1.0 mph 2.0 mph 50% 0.00 in WeatherDisplay:10.37 W/m2 BKN
14:45 69.6 °F 50.7 °F 30.22 in West 1.0 mph 3.0 mph 51% 0.00 in WeatherDisplay:10.37 W/m2 BKN
14:50 69.5 °F 50.0 °F 30.22 in West 1.0 mph 3.0 mph 50% 0.00 in WeatherDisplay:10.37 W/m2 BKN
14:55 69.2 °F 49.8 °F 30.22 in Calm   3.0 mph 50% 0.00 in WeatherDisplay:10.37 W/m2 BKN
15:00 69.1 °F 49.1 °F 30.22 in Calm   3.0 mph 49% 0.00 in WeatherDisplay:10.37 W/m2 BKN
15:05 68.9 °F 48.4 °F 30.22 in West 1.0 mph 5.0 mph 48% 0.00 in WeatherDisplay:10.37 W/m2 BKN
15:10 68.6 °F 48.1 °F 30.22 in West 1.0 mph 5.0 mph 48% 0.00 in WeatherDisplay:10.37 W/m2 BKN
15:20 68.5 °F 49.7 °F 30.22 in WNW 1.0 mph 3.0 mph 51% 0.00 in WeatherDisplay:10.37 W/m2 BKN
15:25 68.6 °F 49.8 °F 30.22 in WNW 1.0 mph 2.0 mph 51% 0.00 in WeatherDisplay:10.37 W/m2 BKN
15:30 68.6 °F 49.2 °F 30.22 in West 2.0 mph 3.0 mph 50% 0.00 in WeatherDisplay:10.37 W/m2 BKN
15:40 68.1 °F 49.3 °F 30.22 in WNW 1.0 mph 2.0 mph 51% 0.00 in WeatherDisplay:10.37 W/m2 BKN
15:45 67.9 °F 47.5 °F 30.22 in WNW 1.0 mph 2.0 mph 48% 0.00 in WeatherDisplay:10.37 W/m2 BKN
15:50 67.7 °F 48.9 °F 30.22 in Calm   2.0 mph 51% 0.00 in WeatherDisplay:10.37 W/m2 BKN
15:55 67.6 °F 47.8 °F 30.22 in Calm   2.0 mph 49% 0.00 in WeatherDisplay:10.37 W/m2 BKN
16:00 67.6 °F 48.3 °F 30.22 in Calm   1.0 mph 50% 0.00 in WeatherDisplay:10.37 W/m2 BKN
16:10 67.0 °F 47.2 °F 30.22 in Calm   3.0 mph 49% 0.00 in WeatherDisplay:10.37 W/m2 BKN
16:15 66.9 °F 48.2 °F 30.22 in WNW 1.0 mph 2.0 mph 51% 0.00 in WeatherDisplay:10.37 W/m2 BKN
16:20 66.8 °F 48.1 °F 30.22 in West 1.0 mph 2.0 mph 51% 0.00 in WeatherDisplay:10.37 W/m2 OVC
16:25 66.7 °F 47.5 °F 30.22 in Calm   2.0 mph 50% 0.00 in WeatherDisplay:10.37 W/m2 OVC
16:30 66.6 °F 47.9 °F 30.22 in Calm   2.0 mph 51% 0.00 in WeatherDisplay:10.37 W/m2 OVC
16:40 66.3 °F 48.7 °F 30.22 in Calm   1.0 mph 53% 0.00 in WeatherDisplay:10.37 W/m2 OVC
16:50 66.0 °F 48.9 °F 30.21 in Calm   1.0 mph 54% 0.00 in WeatherDisplay:10.37 W/m2 OVC
16:55 66.0 °F 49.4 °F 30.21 in Calm   3.0 mph 55% 0.00 in WeatherDisplay:10.37 W/m2 OVC
17:00 65.9 °F 49.8 °F 30.21 in Calm   1.0 mph 56% 0.00 in WeatherDisplay:10.37 W/m2 OVC
17:05 65.8 °F 50.1 °F 30.21 in Calm   1.0 mph 57% 0.00 in WeatherDisplay:10.37 W/m2 OVC
17:10 65.7 °F 50.1 °F 30.21 in Calm   1.0 mph 57% 0.00 in WeatherDisplay:10.37 W/m2 OVC
17:15 65.6 °F 50.0 °F 30.20 in Calm   1.0 mph 57% 0.00 in WeatherDisplay:10.37 W/m2 OVC
17:20 65.5 °F 49.4 °F 30.20 in Calm   1.0 mph 56% 0.00 in WeatherDisplay:10.37 W/m2 OVC
17:25 65.4 °F 50.2 °F 30.20 in Calm   1.0 mph 58% 0.00 in WeatherDisplay:10.37 W/m2 OVC
17:30 65.3 °F 49.7 °F 30.20 in Calm   2.0 mph 57% 0.00 in WeatherDisplay:10.37 W/m2 OVC
17:35 65.2 °F 49.1 °F 30.20 in Calm   2.0 mph 56% 0.00 in WeatherDisplay:10.37 W/m2 OVC
17:45 65.0 °F 49.9 °F 30.20 in Calm   1.0 mph 58% 0.00 in WeatherDisplay:10.37 W/m2 OVC
17:50 64.9 °F 49.8 °F 30.20 in Calm   1.0 mph 58% 0.00 in WeatherDisplay:10.37 W/m2 OVC
17:55 64.8 °F 49.6 °F 30.20 in Calm   1.0 mph 58% 0.00 in WeatherDisplay:10.37 W/m2 OVC
18:00 64.6 °F 49.5 °F 30.20 in Calm   1.0 mph 58% 0.00 in WeatherDisplay:10.37 W/m2 OVC
18:05 64.6 °F 49.9 °F 30.20 in Calm   1.0 mph 59% 0.00 in WeatherDisplay:10.37 W/m2 OVC
18:10 64.5 °F 50.3 °F 30.20 in Calm   3.0 mph 60% 0.00 in WeatherDisplay:10.37 W/m2 OVC
18:15 64.4 °F 49.8 °F 30.20 in Calm   1.0 mph 59% 0.00 in WeatherDisplay:10.37 W/m2 OVC
18:20 64.3 °F 50.1 °F 30.20 in Calm   1.0 mph 60% 0.00 in WeatherDisplay:10.37 W/m2 OVC
18:25 64.2 °F 49.6 °F 30.20 in Calm   1.0 mph 59% 0.00 in WeatherDisplay:10.37 W/m2 OVC
18:30 64.2 °F 50.5 °F 30.20 in Calm   1.0 mph 61% 0.00 in WeatherDisplay:10.37 W/m2 OVC
18:40 64.0 °F 49.8 °F 30.20 in Calm   3.0 mph 60% 0.00 in WeatherDisplay:10.37 W/m2 OVC
18:45 63.8 °F 50.1 °F 30.20 in Calm   1.0 mph 61% 0.00 in WeatherDisplay:10.37 W/m2 OVC
18:50 63.7 °F 50.4 °F 30.20 in Calm   1.0 mph 62% 0.00 in WeatherDisplay:10.37 W/m2 OVC
18:55 63.6 °F 49.9 °F 30.20 in Calm   1.0 mph 61% 0.00 in WeatherDisplay:10.37 W/m2 OVC
19:00 63.5 °F 49.4 °F 30.20 in Calm     60% 0.00 in WeatherDisplay:10.37 W/m2 OVC
19:05 63.5 °F 49.4 °F 30.20 in Calm     60% 0.00 in WeatherDisplay:10.37 W/m2 OVC
19:10 63.5 °F 49.8 °F 30.20 in Calm     61% 0.00 in WeatherDisplay:10.37 W/m2 OVC
19:15 63.4 °F 50.1 °F 30.20 in Calm     62% 0.00 in WeatherDisplay:10.37 W/m2 OVC
19:20 63.2 °F 49.5 °F 30.20 in Calm     61% 0.00 in WeatherDisplay:10.37 W/m2 OVC
19:25 63.1 °F 49.9 °F 30.19 in Calm     62% 0.00 in WeatherDisplay:10.37 W/m2 OVC
19:30 63.0 °F 49.8 °F 30.19 in Calm     62% 0.00 in WeatherDisplay:10.37 W/m2 OVC
19:35 62.9 °F 49.2 °F 30.19 in Calm     61% 0.00 in WeatherDisplay:10.37 W/m2 OVC
19:40 62.9 °F 48.3 °F 30.19 in Calm     59% 0.00 in WeatherDisplay:10.37 W/m2 OVC
19:45 63.0 °F 48.0 °F 30.19 in Calm   1.0 mph 58% 0.00 in WeatherDisplay:10.37 W/m2 OVC
19:50 63.0 °F 48.0 °F 30.19 in Calm   1.0 mph 58% 0.00 in WeatherDisplay:10.37 W/m2 OVC
19:55 63.0 °F 48.4 °F 30.19 in Calm   1.0 mph 59% 0.00 in WeatherDisplay:10.37 W/m2 OVC
20:00 62.9 °F 48.3 °F 30.19 in Calm   1.0 mph 59% 0.00 in WeatherDisplay:10.37 W/m2 OVC
20:05 62.8 °F 47.8 °F 30.18 in Calm     58% 0.00 in WeatherDisplay:10.37 W/m2 OVC
20:10 62.8 °F 48.3 °F 30.18 in Calm   1.0 mph 59% 0.00 in WeatherDisplay:10.37 W/m2 OVC
20:15 62.6 °F 48.1 °F 30.18 in Calm   1.0 mph 59% 0.00 in WeatherDisplay:10.37 W/m2 OVC
20:20 62.7 °F 48.2 °F 30.18 in Calm     59% 0.00 in WeatherDisplay:10.37 W/m2 OVC
20:25 62.7 °F 48.2 °F 30.18 in Calm     59% 0.00 in WeatherDisplay:10.37 W/m2 OVC
20:30 62.6 °F 48.1 °F 30.18 in Calm     59% 0.00 in WeatherDisplay:10.37 W/m2 OVC
20:40 62.4 °F 48.3 °F 30.18 in Calm   1.0 mph 60% 0.00 in WeatherDisplay:10.37 W/m2 OVC
20:45 62.4 °F 48.3 °F 30.18 in Calm   1.0 mph 60% 0.00 in WeatherDisplay:10.37 W/m2 OVC
20:50 62.4 °F 48.8 °F 30.18 in Calm   1.0 mph 61% 0.00 in WeatherDisplay:10.37 W/m2 OVC
20:55 62.6 °F 48.5 °F 30.17 in Calm   2.0 mph 60% 0.00 in WeatherDisplay:10.37 W/m2 OVC
21:00 62.7 °F 49.0 °F 30.18 in Calm   1.0 mph 61% 0.00 in WeatherDisplay:10.37 W/m2 OVC
21:05 62.7 °F 48.6 °F 30.17 in Calm   3.0 mph 60% 0.00 in WeatherDisplay:10.37 W/m2 OVC
21:10 62.7 °F 48.6 °F 30.17 in WNW 1.0 mph 1.0 mph 60% 0.00 in WeatherDisplay:10.37 W/m2 OVC
21:20 63.0 °F 48.0 °F 30.18 in WNW 1.0 mph 3.0 mph 58% 0.00 in WeatherDisplay:10.37 W/m2 OVC
21:25 63.2 °F 47.7 °F 30.18 in WNW 1.0 mph 2.0 mph 57% 0.00 in WeatherDisplay:10.37 W/m2 OVC
21:30 63.3 °F 47.3 °F 30.18 in West 1.0 mph 5.0 mph 56% 0.00 in WeatherDisplay:10.37 W/m2 OVC
21:35 63.4 °F 47.9 °F 30.18 in Calm   2.0 mph 57% 0.00 in WeatherDisplay:10.37 W/m2 OVC
21:40 63.3 °F 47.8 °F 30.18 in West 1.0 mph 1.0 mph 57% 0.00 in WeatherDisplay:10.37 W/m2 OVC
21:45 63.4 °F 47.9 °F 30.18 in Calm   2.0 mph 57% 0.00 in WeatherDisplay:10.37 W/m2 OVC
21:50 63.5 °F 47.5 °F 30.18 in WNW 1.0 mph 5.0 mph 56% 0.00 in WeatherDisplay:10.37 W/m2 OVC
22:00 63.4 °F 48.4 °F 30.18 in Calm   2.0 mph 58% 0.00 in WeatherDisplay:10.37 W/m2 OVC
22:10 63.5 °F 48.4 °F 30.17 in WNW 1.0 mph 2.0 mph 58% 0.00 in WeatherDisplay:10.37 W/m2 OVC
22:15 63.4 °F 48.4 °F 30.17 in Calm   2.0 mph 58% 0.00 in WeatherDisplay:10.37 W/m2 OVC
22:20 63.4 °F 48.4 °F 30.18 in West 1.0 mph 2.0 mph 58% 0.00 in WeatherDisplay:10.37 W/m2 OVC
22:30 63.3 °F 47.8 °F 30.18 in West 1.0 mph 3.0 mph 57% 0.00 in WeatherDisplay:10.37 W/m2 OVC
22:35 63.4 °F 48.4 °F 30.18 in Calm   5.0 mph 58% 0.00 in WeatherDisplay:10.37 W/m2 OVC
22:40 63.4 °F 48.4 °F 30.17 in WNW 1.0 mph 3.0 mph 58% 0.00 in WeatherDisplay:10.37 W/m2 OVC
22:55 63.3 °F 48.3 °F 30.17 in West 1.0 mph 3.0 mph 58% 0.00 in WeatherDisplay:10.37 W/m2 OVC
23:00 63.3 °F 47.8 °F 30.17 in West 1.0 mph 2.0 mph 57% 0.00 in WeatherDisplay:10.37 W/m2 OVC
23:05 63.3 °F 47.8 °F 30.17 in West 1.0 mph 2.0 mph 57% 0.00 in WeatherDisplay:10.37 W/m2 OVC
23:10 63.3 °F 47.8 °F 30.17 in West 1.0 mph 3.0 mph 57% 0.00 in WeatherDisplay:10.37 W/m2 OVC
23:25 63.2 °F 47.7 °F 30.17 in Calm   5.0 mph 57% 0.00 in WeatherDisplay:10.37 W/m2 OVC
23:30 63.2 °F 47.7 °F 30.17 in Calm   4.0 mph 57% 0.00 in WeatherDisplay:10.37 W/m2 OVC
23:35 63.2 °F 47.7 °F 30.17 in Calm   3.0 mph 57% 0.00 in WeatherDisplay:10.37 W/m2 OVC
23:40 63.2 °F 47.7 °F 30.16 in Calm   5.0 mph 57% 0.00 in WeatherDisplay:10.37 W/m2 OVC
23:45 63.1 °F 47.6 °F 30.16 in Calm   2.0 mph 57% 0.00 in WeatherDisplay:10.37 W/m2 OVC
23:55 63.2 °F 47.7 °F 30.16 in WSW 1.0 mph 5.0 mph 57% 0.00 in WeatherDisplay:10.37 W/m2 OVC
Piedmont Bend
Compliments of Weather Underground - 4 mb